Regional Weather Roundup
Issued by NWS Sioux Falls, SD

Home | Current Version | Previous Version | Text Only | Print | Product List | Glossary On
Versions: 1 2 3 4 5 6 7 8 9 10 11 12 13 14 15 16 17 18 19 20 21 22 23 24 25 26 27 28 29 30 31 32 33 34 35 36 37 38 39 40 41 42 43 44 45 46 47 48 49 50
828
ASUS43 KFSD 262110
RWRFSD

WEATHER ROUNDUP FOR SE SOUTH DAKOTA/SW MINNESOTA/NW IOWA
NATIONAL WEATHER SERVICE SIOUX FALLS SD
400 PM CDT TUE JUL 26 2016

NOTE: "FAIR" INDICATES FEW OR NO CLOUDS BELOW 12,000 FEET WITH NO
SIGNIFICANT WEATHER AND OR OBSTRUCTIONS TO VISIBILITY.


SDZ038>040-050-052>070-262200-
SOUTHEAST SOUTH DAKOTA

CITY           SKY/WX    TMP DP  RH WIND       PRES   REMARKS
BROOKINGS      CLOUDY    82  67  60 S7        30.03S
CHAMBERLAIN    CLOUDY    85  71  62 NE10      29.96S
HURON          CLOUDY    71  66  84 E12       29.99F
MADISON        FAIR      81  68  65 SE6       30.04R
MITCHELL       CLOUDY    87  62  43 SE8       29.98R
SIOUX FALLS    CLOUDY    86  64  47 S13G20    30.02S
WINNER         MOCLDY    94  60  32 SE7       29.95R
YANKTON        SUNNY     90  63  40 SE14      29.97F
$$

MNZ071-072-080-081-089-090-097-098-262200-
SOUTHWEST MINNESOTA

CITY           SKY/WX    TMP DP  RH WIND       PRES   REMARKS
FAIRMONT       SUNNY     84  66  54 SW7       30.04S
JACKSON        SUNNY     86  61  42 SW6       30.07R
LUVERNE        SUNNY     82  64  54 S8        30.04F
MARSHALL       CLOUDY    86  66  51 SW9       30.02S
MONTEVIDEO     CLOUDY    88  70  55 W8        30.01F
REDWOOD FALLS  MOSUNNY   88  63  43 SW10      30.02R
TRACY          SUNNY     87  69  54 SW7       30.04S
WINDOM         SUNNY     86  64  48 SW8       30.05S
WORTHINGTON    SUNNY     84  68  58 S8        30.07R
$$

IAZ001>003-012>014-020>022-031-032-NEZ013-014-SDZ071-262200-
NORTHWEST IOWA

CITY           SKY/WX    TMP DP  RH WIND       PRES   REMARKS
CHEROKEE       SUNNY     85  66  52 S5        30.04S
DENISON        SUNNY     84  66  54 MISG      30.02S
ESTHERVILLE    SUNNY     84  68  58 S7        30.05S
LE MARS        SUNNY     86  66  51 S8G16     30.04R
SHELDON        SUNNY     84  68  58 S8        30.04R
SIOUX CITY     SUNNY     88  67  49 SE12      30.01F
SPENCER        SUNNY     85  67  54 VRB6      30.05S
STORM LAKE     SUNNY     82  66  57 S6        30.06S
$$

ABBREVIATIONS USED IN REMARKS
   TC - TEMPERATURE IN CELSIUS
  WCI - WIND CHILL INDEX
   HX - HEAT INDEX
  VSB - VISIBILITY





USA.gov is the U.S. government's official web portal to all federal, state and local government web resources and services.